This is the latest recevied weather packets stored in our database for station/object VA2EYZ-13. If no packets are shown the sender has not sent any weather packets the latest 10 day(s).
| Time | Temp. | Humidity | Pressure | Rain* | Wind** | Luminosity | Snow |
|---|---|---|---|---|---|---|---|
| 1777727039 | 7.22° C | 42% | 1013.6 hPa | - | - | - | - |
| 1777724110 | 7.22° C | 41% | 1013.6 hPa | - | - | - | - |
| 1777723439 | 7.22° C | 41% | 1013 hPa | - | - | - | - |
| 1777722006 | 7.22° C | 40% | 1013 hPa | - | - | - | - |
| 1777721003 | 7.22° C | 40% | 1013.3 hPa | - | - | - | - |
| 1777719839 | 7.22° C | 40% | 1013 hPa | - | - | - | - |
| 1777717573 | 7.22° C | 42% | 1013 hPa | - | - | - | - |
| 1777716232 | 7.22° C | 42% | 1012.7 hPa | - | - | - | - |
| 1777714153 | 7.78° C | 40% | 1012.7 hPa | - | - | - | - |
| 1777713707 | 7.78° C | 40% | 1012 hPa | - | - | - | - |
| 1777712632 | 7.78° C | 40% | 1012.5 hPa | - | - | - | - |
| 1777711036 | 7.78° C | 38% | 1012.5 hPa | - | - | - | - |
| 1777709031 | 7.78° C | 38% | 1012.4 hPa | - | - | - | - |
| 1777707424 | 7.78° C | 38% | 1012.4 hPa | - | - | - | - |
| 1777706068 | 7.78° C | 38% | 1012 hPa | - | - | - | - |
| 1777705431 | 7.78° C | 38% | 1012.1 hPa | - | - | - | - |
| 1777704832 | 8.33° C | 35% | 1012.1 hPa | - | - | - | - |
| 1777704349 | 8.33° C | 34% | 1012.1 hPa | - | - | - | - |
| 1777701831 | 8.33° C | 34% | 1012 hPa | - | - | - | - |
| 1777701191 | 8.33° C | 32% | 1012 hPa | - | - | - | - |
| 1777700332 | 8.33° C | 32% | 1011.9 hPa | - | - | - | - |
| 1777699732 | 9.44° C | 28% | 1011.9 hPa | - | - | - | - |
| 1777697741 | 8.89° C | 28% | 1011.9 hPa | - | - | - | - |
| 1777694540 | 8.89° C | 28% | 1011.8 hPa | - | - | - | - |
| 1777694109 | 8.89° C | 26% | 1011.8 hPa | - | - | - | - |
* Rain since midnight (hover to see other rain measurements)
** Current wind speed in m/s (hover to see current wind gust speed)